Regional Weather Roundup
Issued by NWS

Current Version | Previous Version | Text Only | Print | Product List | Glossary On
Versions: 1 2 3 4 5 6 7 8 9 10 11 12 13 14 15 16 17 18 19 20 21 22 23 24 25 26 27 28 29 30 31 32 33 34 35 36 37 38 39 40 41 42 43 44 45 46 47 48 49 50
000
ASUS44 KOUN 301210
RWROK

WEATHER ROUNDUP FOR OKLAHOMA
NATIONAL WEATHER SERVICE NORMAN OK
700 AM CDT TUE SEP 30 2014

NOTE: "FAIR" INDICATES FEW OR NO CLOUDS BELOW 12,000 FEET WITH NO
      SIGNIFICANT WEATHER AND/OR OBSTRUCTIONS TO VISIBILITY.

OKZ001>007-009>012-014-015-017-301300-
NORTHWEST OKLAHOMA AND THE PANHANDLE

CITY           SKY/WX    TMP DP  RH WIND       PRES   REMARKS
GAGE           MOCLDY    65  58  78 S16       29.87F
6HR MIN TEMP:  65; 6HR MAX TEMP:  69;

ENID/WOODRING  PTCLDY    57  55  94 SE6       29.88F
$$

OKZ016-021>023-033>039-044-045-301300-
SOUTHWEST OKLAHOMA

CITY           SKY/WX    TMP DP  RH WIND       PRES   REMARKS
LAWTON/REGL    CLEAR     64  60  87 E6        29.90R
6HR MIN TEMP:  63; 6HR MAX TEMP:  68;

LAWTON/FT SILL CLEAR     64  60  88 SE1       29.89S
FREDERICK      CLEAR     64  60  87 E7        29.86S
CLINTON        CLEAR     66  60  81 S12         N/A
HOBART         CLEAR     66  61  84 S12       29.89F
ALTUS AFB      CLEAR     62  62  97 E7        29.88S
$$

OKZ018>020-024>031-301300-
CENTRAL OKLAHOMA

CITY           SKY/WX    TMP DP  RH WIND       PRES   REMARKS
OKLAHOMA CITY  PTCLDY    62  58  86 S6        29.92R
6HR MIN TEMP:  59; 6HR MAX TEMP:  67;

OKC/WILEY POST CLEAR     67  60  78 S10       29.91R
OKC/TINKER AFB CLEAR     64  59  83 S6        29.92R
STILLWATER     CLEAR     61  56  83 SE5       29.92R
GUTHRIE        CLEAR     65  59  81 S5        29.91R
$$

OKZ008-013-054>072-301300-
NORTHEAST OKLAHOMA

CITY           SKY/WX    TMP DP  RH WIND       PRES   REMARKS
TULSA          PTCLDY    62  59  90 SE3       29.92S
6HR MIN TEMP:  59; 6HR MAX TEMP:  70;

TULSA/JONES    CLEAR     59  58  96 CALM      29.92S
PONCA CITY     CLEAR     63  58  83 SE9       29.90F
BARTLESVILLE   CLEAR     54  54 100 CALM      29.93S FOG
MUSKOGEE       CLEAR     61  59  93 S7        29.94S
$$

OKZ032-040>043-046>053-073>077-301300-
SOUTH CENTRAL/SOUTHEAST OKLAHOMA

CITY           SKY/WX    TMP DP  RH WIND       PRES   REMARKS
ARDMORE/DWNTWN   N/A     63  59  88 CALM      29.91R
MCALESTER      PTCLDY    64  60  87 E3        29.93S
$$



USA.gov is the U.S. government's official web portal to all federal, state and local government web resources and services.